When you browse on this site, cookies collect data to enhance your experience and personalize the content and advertising you see.
Visit our Privacy Policy to learn more. By continuing to use the site, you agree to this use of cookies and data.
  • în România
  • Lista ţărilor
  • Pe 7 zile
  • Temperatura apei
  • Hartă satelitară
  • Meteo pe hartă
  • Widget-uri
  • user-avatar
    Intrare

    Meteo pe oră la Kavala

    Astăzi, 23 Martie, Sâmbătă

    Timp Temperatura Precipitaţii Vânt Presiune Umiditate
    00:00 +12°C° 0 mm 2 m/s 766 mmHg 73%
    01:00 +12°C° 0 mm 2 m/s 766 mmHg 73%
    02:00 +11°C° 0 mm 1 m/s 766 mmHg 73%
    03:00 +11°C° 0 mm 1 m/s 766 mmHg 73%
    04:00 +11°C° 0 mm 1 m/s 766 mmHg 73%
    05:00 +10°C° 0 mm 1 m/s 766 mmHg 73%
    06:00 +11°C° 0 mm 1 m/s 766 mmHg 70%
    07:00 +12°C° 0 mm 2 m/s 766 mmHg 67%
    08:00 +13°C° 0 mm 2 m/s 765 mmHg 64%
    09:00 +15°C° 0 mm 1 m/s 765 mmHg 58%
    10:00 +16°C° 0 mm 1 m/s 765 mmHg 52%
    11:00 +19°C° 0 mm 1 m/s 765 mmHg 46%
    12:00 +20°C° 0 mm 1 m/s 764 mmHg 45%
    13:00 +19°C° 0 mm 2 m/s 764 mmHg 45%
    14:00 +20°C° 0 mm 2 m/s 764 mmHg 44%
    15:00 +19°C° 0 mm 2 m/s 763 mmHg 48%
    16:00 +18°C° 0 mm 2 m/s 763 mmHg 51%
    17:00 +18°C° 0 mm 2 m/s 763 mmHg 55%
    18:00 +17°C° 0 mm 2 m/s 763 mmHg 59%
    19:00 +16°C° 0 mm 1 m/s 763 mmHg 62%
    20:00 +14°C° 0 mm 0 m/s 764 mmHg 66%
    21:00 +14°C° 0 mm 2 m/s 764 mmHg 68%
    22:00 +13°C° 0 mm 4 m/s 764 mmHg 70%
    23:00 +13°C° 0 mm 5 m/s 765 mmHg 72%

    Mâine, 24 Martie, Duminică

    Timp Temperatura Precipitaţii Vânt Presiune Umiditate
    00:00 +12°C° 0 mm 4 m/s 765 mmHg 73%
    01:00 +11°C° 0 mm 3 m/s 765 mmHg 74%
    02:00 +12°C° 0 mm 2 m/s 765 mmHg 75%
    03:00 +10°C° 0 mm 2 m/s 765 mmHg 76%
    04:00 +10°C° 0 mm 2 m/s 765 mmHg 76%
    05:00 +10°C° 0 mm 2 m/s 765 mmHg 77%
    06:00 +10°C° 0 mm 2 m/s 765 mmHg 75%
    07:00 +11°C° 0 mm 1 m/s 765 mmHg 73%
    08:00 +12°C° 0 mm 1 m/s 765 mmHg 71%
    09:00 +13°C° 0 mm 2 m/s 765 mmHg 68%
    10:00 +14°C° 0 mm 2 m/s 765 mmHg 64%
    11:00 +15°C° 0 mm 2 m/s 765 mmHg 61%
    12:00 +15°C° 0 mm 2 m/s 764 mmHg 61%
    13:00 +15°C° 0 mm 2 m/s 764 mmHg 61%
    14:00 +16°C° 0 mm 3 m/s 763 mmHg 60%
    15:00 +16°C° 0 mm 3 m/s 763 mmHg 62%
    16:00 +16°C° 0 mm 2 m/s 762 mmHg 63%
    17:00 +16°C° 0 mm 2 m/s 762 mmHg 64%
    18:00 +15°C° 0 mm 2 m/s 762 mmHg 69%
    19:00 +14°C° 0 mm 1 m/s 762 mmHg 75%
    20:00 +12°C° 0 mm 1 m/s 763 mmHg 81%
    21:00 +12°C° 0 mm 1 m/s 763 mmHg 81%
    22:00 +12°C° 0 mm 1 m/s 763 mmHg 81%
    23:00 +11°C° 0 mm 1 m/s 763 mmHg 82%

    Poimâine, 25 Martie, Luni

    Timp Temperatura Precipitaţii Vânt Presiune Umiditate
    00:00 +11°C° 0 mm 1 m/s 763 mmHg 81%
    01:00 +11°C° 0 mm 1 m/s 763 mmHg 81%
    02:00 +10°C° 0 mm 1 m/s 763 mmHg 80%
    03:00 +10°C° 0 mm 1 m/s 762 mmHg 80%
    04:00 +10°C° 0 mm 1 m/s 762 mmHg 80%
    05:00 +10°C° 0 mm 1 m/s 762 mmHg 80%
    06:00 +10°C° 0 mm 1 m/s 762 mmHg 77%
    07:00 +11°C° 0 mm 1 m/s 762 mmHg 73%
    08:00 +12°C° 0 mm 1 m/s 761 mmHg 70%
    09:00 +13°C° 0 mm 1 m/s 761 mmHg 67%
    10:00 +15°C° 0 mm 1 m/s 761 mmHg 63%
    11:00 +16°C° 0 mm 1 m/s 760 mmHg 60%
    12:00 +17°C° 0 mm 2 m/s 759 mmHg 59%
    13:00 +18°C° 0 mm 2 m/s 759 mmHg 57%
    14:00 +18°C° 0 mm 3 m/s 758 mmHg 56%
    15:00 +18°C° 0 mm 3 m/s 758 mmHg 58%
    16:00 +18°C° 0 mm 3 m/s 757 mmHg 60%
    17:00 +17°C° 0 mm 3 m/s 757 mmHg 63%
    18:00 +16°C° 0 mm 2 m/s 757 mmHg 69%
    19:00 +14°C° 0 mm 2 m/s 757 mmHg 76%
    20:00 +12°C° 0 mm 1 m/s 757 mmHg 82%
    21:00 +12°C° 0 mm 1 m/s 757 mmHg 84%
    22:00 +12°C° 0 mm 1 m/s 757 mmHg 85%
    23:00 +11°C° 0 mm 0 m/s 757 mmHg 87%

    26 Martie, Marţi

    Timp Temperatura Precipitaţii Vânt Presiune Umiditate
    00:00 +11°C° 0 mm 0 m/s 757 mmHg 87%
    01:00 +10°C° 0 mm 0 m/s 756 mmHg 88%
    02:00 +10°C° 0 mm 0 m/s 756 mmHg 88%
    03:00 +10°C° 0 mm 0 m/s 756 mmHg 88%
    04:00 +10°C° 0 mm 0 m/s 756 mmHg 87%
    05:00 +10°C° 0 mm 0 m/s 756 mmHg 87%
    06:00 +11°C° 0 mm 0 m/s 756 mmHg 83%
    07:00 +12°C° 0 mm 0 m/s 756 mmHg 79%
    08:00 +13°C° 0 mm 0 m/s 756 mmHg 74%
    09:00 +15°C° 0.1 mm 1 m/s 757 mmHg 70%
    10:00 +18°C° 0.1 mm 1 m/s 757 mmHg 66%
    11:00 +18°C° 0.1 mm 2 m/s 757 mmHg 61%
    12:00 +18°C° 0.8 mm 2 m/s 757 mmHg 61%
    13:00 +18°C° 0.8 mm 2 m/s 757 mmHg 61%
    14:00 +18°C° 0.8 mm 2 m/s 756 mmHg 60%
    15:00 +17°C° 1.1 mm 2 m/s 757 mmHg 64%
    16:00 +16°C° 1.1 mm 2 m/s 757 mmHg 67%
    17:00 +14°C° 1.1 mm 3 m/s 757 mmHg 70%
    18:00 +13°C° 1.3 mm 3 m/s 758 mmHg 73%
    19:00 +12°C° 1.3 mm 3 m/s 758 mmHg 76%
    20:00 +11°C° 1.3 mm 3 m/s 759 mmHg 80%
    21:00 +11°C° 1 mm 3 m/s 760 mmHg 79%
    22:00 +10°C° 1 mm 4 m/s 760 mmHg 78%
    23:00 +10°C° 1 mm 4 m/s 761 mmHg 78%

    27 Martie, Miercuri

    Timp Temperatura Precipitaţii Vânt Presiune Umiditate
    00:00 +10°C° 0.4 mm 4 m/s 761 mmHg 77%
    01:00 +9°C° 0.4 mm 3 m/s 761 mmHg 77%
    02:00 +9°C° 0.4 mm 3 m/s 761 mmHg 77%
    03:00 +8°C° 0.2 mm 4 m/s 761 mmHg 76%
    04:00 +8°C° 0.2 mm 4 m/s 762 mmHg 75%
    05:00 +7°C° 0.2 mm 5 m/s 762 mmHg 74%
    06:00 +7°C° 0.1 mm 5 m/s 762 mmHg 71%
    07:00 +7°C° 0.1 mm 6 m/s 763 mmHg 68%
    08:00 +8°C° 0.1 mm 6 m/s 763 mmHg 65%
    09:00 +8°C° 0.1 mm 6 m/s 763 mmHg 62%
    10:00 +9°C° 0.1 mm 6 m/s 763 mmHg 58%
    11:00 +9°C° 0.1 mm 6 m/s 764 mmHg 55%
    12:00 +10°C° 0 mm 6 m/s 764 mmHg 53%
    13:00 +10°C° 0 mm 6 m/s 764 mmHg 51%
    14:00 +11°C° 0 mm 6 m/s 763 mmHg 50%
    15:00 +12°C° 0 mm 5 m/s 763 mmHg 49%
    16:00 +12°C° 0 mm 5 m/s 763 mmHg 48%
    17:00 +12°C° 0 mm 5 m/s 763 mmHg 47%
    18:00 +10°C° 0 mm 5 m/s 764 mmHg 51%
    19:00 +9°C° 0 mm 5 m/s 764 mmHg 54%
    20:00 +8°C° 0 mm 4 m/s 765 mmHg 57%
    21:00 +8°C° 0 mm 4 m/s 765 mmHg 58%
    22:00 +7°C° 0 mm 4 m/s 765 mmHg 60%
    23:00 +7°C° 0 mm 4 m/s 766 mmHg 62%

    28 Martie, Joi

    Timp Temperatura Precipitaţii Vânt Presiune Umiditate
    00:00 +6°C° 0 mm 4 m/s 766 mmHg 63%
    01:00 +6°C° 0 mm 4 m/s 766 mmHg 64%
    02:00 +6°C° 0 mm 4 m/s 766 mmHg 65%
    03:00 +5°C° 0 mm 3 m/s 766 mmHg 66%
    04:00 +5°C° 0 mm 3 m/s 767 mmHg 67%
    05:00 +5°C° 0 mm 3 m/s 767 mmHg 68%
    06:00 +5°C° 0 mm 3 m/s 767 mmHg 65%
    07:00 +7°C° 0 mm 3 m/s 767 mmHg 62%
    08:00 +8°C° 0 mm 2 m/s 768 mmHg 59%
    09:00 +10°C° 0 mm 2 m/s 767 mmHg 53%
    10:00 +12°C° 0 mm 2 m/s 767 mmHg 48%
    11:00 +14°C° 0 mm 1 m/s 767 mmHg 42%
    12:00 +14°C° 0.1 mm 2 m/s 767 mmHg 44%
    13:00 +13°C° 0.1 mm 2 m/s 767 mmHg 46%
    14:00 +13°C° 0.1 mm 2 m/s 766 mmHg 48%
    15:00 +13°C° 0.4 mm 2 m/s 766 mmHg 54%
    16:00 +12°C° 0.4 mm 2 m/s 766 mmHg 60%
    17:00 +10°C° 0.4 mm 2 m/s 766 mmHg 66%
    18:00 +10°C° 0.3 mm 2 m/s 766 mmHg 68%
    19:00 +9°C° 0.3 mm 2 m/s 767 mmHg 70%
    20:00 +8°C° 0.3 mm 2 m/s 767 mmHg 72%
    21:00 +8°C° 0 mm 3 m/s 767 mmHg 70%
    22:00 +6°C° 0 mm 4 m/s 768 mmHg 67%
    23:00 +5°C° 0 mm 4 m/s 768 mmHg 65%
    Arată mai mult